Flag for Switzerland Weather past 2 weeks in Burgdorf, Bern, Switzerland

Now
41 °F

Sunny.


Feels Like: 36 °F
Forecast: 31 / 39 °F
Wind: 7 mph from Southeast

Location: Bern / Belp

Current Time: Mar 3, 2015 at 10:17:22 AM

Latest Report: Mar 3, 2015 at 9:50 AM


Visibility: 10 mi

Pressure: 30.21 "Hg

Humidity: 81%

Dew point: 36 °F

Location of BurgdorfLocation

Historic Weather in Burgdorf — Graph

°F

Burgdorf temperature yesterday

Maximum temperature yesterday: 52 °F (at 11:50 AM)
Minimum temperature yesterday: 41 °F (at 12:50 PM)
Average temperature yesterday: 47 °F

Past Weeks' High & Low Weather Summary

 TemperatureHumidityPressure
High52 °F (Feb 20, 2:20 PM)100% (Feb 16, 9:20 AM)30.60 "Hg (Feb 16, 9:20 AM)
Low21 °F (Feb 20, 7:20 AM)24% (Feb 20, 3:50 PM)29.56 "Hg (Feb 21, 9:20 AM)
Average35 °F84%30.03 "Hg
* Reported Feb 16 9:20 AM — Mar 3 9:20 AM, Burgdorf, Weather by CustomWeather, © 2015

Note: Actual official high and low records may vary slightly from our data, if they occured in-between our weather recording intervals... More about our weather records

Advertising

Burgdorf weather history for previous 24 hours

 ConditionsComfort  
Time TempWeatherWind HumidityBarometerVisibility
9:20 AM
Tue, Mar 3
41 °FSunny.5 mph76%30.21 "Hg10 mi
8:50 AM37 °FScattered clouds.5 mph87%30.21 "HgN/A
8:20 AM34 °FScattered clouds.6 mph93%30.21 "HgN/A
7:50 AM32 °FBroken clouds.5 mph100%30.21 "HgN/A
7:20 AM32 °FBroken clouds.6 mph100%30.21 "HgN/A
6:50 AM34 °FPassing clouds.6 mph93%30.21 "HgN/A
6:20 AM34 °FPassing clouds.7 mph93%30.21 "HgN/A
5:50 AM34 °FPassing clouds.5 mph93%30.21 "HgN/A
5:20 AM34 °FOvercast.3 mph93%30.21 "HgN/A
4:50 AM34 °FPartly cloudy.2 mph93%30.21 "HgN/A
4:20 AM32 °FClear.1 mph100%30.21 "Hg10 mi
3:50 AM34 °FClear.1 mph93%30.21 "Hg10 mi
3:20 AM36 °FClear.3 mph87%30.21 "Hg10 mi
2:50 AM34 °FClear.1 mph93%30.21 "HgN/A
2:20 AM36 °FClear.1 mph93%30.21 "HgN/A
1:50 AM36 °FPassing clouds.1 mph93%30.21 "HgN/A
1:20 AM36 °FPassing clouds.1 mph87%30.21 "HgN/A
12:50 AM36 °FMostly cloudy.2 mph93%30.21 "HgN/A
12:20 AM39 °FPartly cloudy.1 mph70%30.21 "HgN/A
11:50 PM
Mon, Mar 2
41 °FPartly cloudy.2 mph66%30.21 "HgN/A
11:20 PM41 °FPartly cloudy.7 mph61%30.18 "HgN/A
10:50 PM43 °FSprinkles. Partly cloudy.10 mph61%30.18 "HgN/A
10:20 PM43 °FPartly cloudy.10 mph57%30.15 "HgN/A
9:50 PM43 °FPassing clouds.10 mph61%30.15 "HgN/A
9:20 PM43 °FLight rain. Passing clouds.13 mph66%30.12 "HgN/A
8:50 PM45 °FPassing clouds.16 mph61%30.09 "HgN/A
8:20 PM45 °FPassing clouds.9 mph66%30.09 "HgN/A
7:50 PM45 °FPassing clouds.12 mph61%30.07 "HgN/A
7:20 PM45 °FPartly cloudy.5 mph66%30.04 "HgN/A
6:50 PM45 °FPartly cloudy.6 mph66%30.04 "HgN/A
6:20 PM46 °FPassing clouds.12 mph57%30.01 "HgN/A
5:50 PM48 °FPartly sunny.15 mph54%30.01 "HgN/A
5:20 PM48 °FPartly sunny.15 mph54%29.98 "HgN/A
4:50 PM46 °FPartly sunny.3 mph66%29.98 "HgN/A
4:20 PM43 °FBroken clouds.6 mph81%29.98 "HgN/A
3:50 PM41 °FScattered clouds.16 mph81%29.98 "HgN/A
3:20 PM48 °FSprinkles. Partly sunny.8 mph58%29.95 "HgN/A
2:50 PM48 °FBroken clouds.13 mph58%29.95 "HgN/A
2:20 PM48 °FBroken clouds.5 mph76%29.92 "HgN/A
1:50 PM45 °FSprinkles. Partly sunny.5 mph81%29.92 "HgN/A
1:20 PM43 °FSprinkles. Partly sunny.13 mph81%29.92 "Hg4 mi
12:50 PM41 °FSprinkles. Broken clouds.23 mph87%29.95 "Hg3 mi
12:20 PM50 °FBroken clouds.29 mph62%29.92 "HgN/A
11:50 AM52 °FPartly sunny.13 mph62%29.89 "HgN/A
11:20 AM50 °FPartly sunny.12 mph67%29.86 "HgN/A
10:50 AM50 °FBroken clouds.8 mph67%29.86 "HgN/A
10:20 AM48 °FBroken clouds.8 mph71%29.86 "HgN/A
Weather by CustomWeather, © 2015

See weather overviewHow to use our weather pages